| time (UTC) | temp F | wind direction | speed MPH | gust MPH | rain 1hr in | rain 24hr in | rain mn in | humidity % | barometer mb |
| 20260507161230 | 52 | 248 | 2.0 | 5.0 | 0.00 | 0.00 | 0.00 | 49 | 1013.3 |
| 20260507160120 | 52 | 293 | 5.0 | 12.0 | 0.00 | 0.00 | 0.00 | 50 | 1013.3 |
| 20260507155120 | 52 | 225 | 1.0 | 5.0 | 0.00 | 0.00 | 0.00 | 50 | 1013.3 |
| 20260507154156 | 51 | 248 | 3.0 | 9.0 | 0.00 | 0.00 | 0.00 | 49 | 1013.3 |
| 20260507153120 | 51 | 203 | 4.0 | 8.0 | 0.00 | 0.00 | 0.00 | 50 | 1013.3 |
| 20260507152120 | 51 | 203 | 1.0 | 4.0 | 0.00 | 0.00 | 0.00 | 50 | 1013.3 |
| 20260507151120 | 50 | 225 | 1.0 | 3.0 | 0.00 | 0.00 | 0.00 | 54 | 1013.1 |
| 20260507150122 | 49 | 225 | 3.0 | 6.0 | 0.00 | 0.00 | 0.00 | 52 | 1013.1 |
| 20260507145120 | 48 | 225 | 1.0 | 2.0 | 0.00 | 0.00 | 0.00 | 55 | 1013.1 |
| 20260507144120 | 48 | 225 | 3.0 | 6.0 | 0.00 | 0.00 | 0.00 | 55 | 1013.3 |
| 20260507143120 | 48 | 225 | 4.0 | 8.0 | 0.00 | 0.00 | 0.00 | 55 | 1013.3 |
| 20260507142120 | 48 | 248 | 3.0 | 8.0 | 0.00 | 0.00 | 0.00 | 55 | 1013.4 |
| 20260507141120 | 48 | 248 | 2.0 | 5.0 | 0.00 | 0.00 | 0.00 | 58 | 1013.5 |
| 20260507140157 | 48 | 225 | 5.0 | 9.0 | 0.00 | 0.00 | 0.00 | 57 | 1013.5 |
| 20260507135120 | 47 | 225 | 1.0 | 5.0 | 0.00 | 0.00 | 0.00 | 61 | 1013.4 |
| 20260507134122 | 47 | 0.0 | 2.0 | 0.00 | 0.00 | 0.00 | 66 | 1013.4 | |
| 20260507133157 | 47 | 225 | 2.0 | 4.0 | 0.00 | 0.00 | 0.00 | 65 | 1013.4 |
| 20260507132122 | 47 | 0.0 | 1.0 | 0.00 | 0.00 | 0.00 | 67 | 1013.3 | |
| 20260507131155 | 46 | 0.0 | 3.0 | 0.00 | 0.00 | 0.00 | 68 | 1013.3 | |
| 20260507130120 | 45 | 248 | 1.0 | 3.0 | 0.00 | 0.00 | 0.00 | 70 | 1013.2 |
| 20260507125122 | 45 | 0.0 | 0.0 | 0.00 | 0.00 | 0.00 | 71 | 1013.0 | |
| 20260507124122 | 44 | 0.0 | 1.0 | 0.00 | 0.00 | 0.00 | 74 | 1013.1 | |
| 20260507123121 | 43 | 0.0 | 0.0 | 0.00 | 0.00 | 0.00 | 76 | 1013.1 | |
| 20260507122122 | 42 | 0.0 | 2.0 | 0.00 | 0.00 | 0.00 | 76 | 1013.1 | |
| 20260507121122 | 41 | 0.0 | 1.0 | 0.00 | 0.00 | 0.00 | 78 | 1013.0 | |
| 20260507120122 | 40 | 0.0 | 0.0 | 0.00 | 0.00 | 0.00 | 81 | 1013.0 | |
| 20260507115122 | 38 | 0.0 | 0.0 | 0.00 | 0.00 | 0.00 | 85 | 1012.8 | |
| 20260507114121 | 36 | 0.0 | 0.0 | 0.00 | 0.00 | 0.00 | 90 | 1012.7 | |
| 20260507113121 | 35 | 0.0 | 0.0 | 0.00 | 0.00 | 0.00 | 90 | 1012.5 | |
| 20260507112121 | 34 | 0.0 | 0.0 | 0.00 | 0.00 | 0.00 | 88 | 1012.5 | |
| 20260507111221 | 34 | 0.0 | 0.0 | 0.00 | 0.00 | 0.00 | 87 | 1012.2 | |
| 20260507111056 | 33 | 0.0 | 0.0 | 0.00 | 0.00 | 0.00 | 86 | 1012.1 |